Weather History for KLVS - April, 2014

Change the Weather History Date:

Tuesday, April 1, 2014

  Actual Average Record
Temperature  
Mean Temperature 45 °F -  
Max Temperature 66 °F 55 °F 75 °F (2011)
Min Temperature 24 °F 27 °F 10 °F (1973)
Degree Days  
Heating Degree Days 20    
Moisture  
Dew Point 7 °F    
Average Humidity 24    
Maximum Humidity 53    
Minimum Humidity 9    
Precipitation  
Precipitation 0.00 in - - ()
Sea Level Pressure  
Sea Level Pressure 29.76 in    
Wind  
Wind Speed 14 mph (SSW)    
Max Wind Speed 36 mph    
Max Gust Speed 51 mph    
Visibility 10 miles    
Events      
Averages and records for this station are not official NWS values.
T = Trace of Precipitation, MM = Missing Value Source: NWS Daily Summary

Daily Weather History Graph

Daily Weather History Graph

Search for Another Location

Airport or City:

Trip Planner

Search our weather history database for the weather conditions in past years. The results will help you decide how hot, cold, wet, or windy it might be!

Date:

Astronomy

Apr. 01, 2014 Rise Set
Actual Time 6:46 AM MDT 7:22 PM MDT
Civil Twilight 6:21 AM MDT 7:48 PM MDT
Nautical Twilight 5:51 AM MDT 8:18 PM MDT
Astronomical Twilight 5:20 AM MDT 8:49 PM MDT
Moon 7:55 AM MDT (4/1) 9:42 PM MDT (4/1)
Length of Visible Light 13h 26m
Length of Day
12h 35m
Waxing Crescent, 5% of the Moon is Illuminated
Apr 1
Waxing Crescent
Apr 7
First Quarter
Apr 15
Full
Apr 22
Last Quarter
Apr 29
New

Hourly Weather History & Observations

Time (MDT) Temp. Windchill Dew Point Humidity Pressure Visibility Wind Dir Wind Speed Gust Speed Precip Events Conditions
12:53 AM 39.0 °F 34.0 °F 3.0 °F 22% 29.83 in 10.0 mi South 6.9 mph - N/A   Clear
1:53 AM 37.9 °F 29.2 °F 3.9 °F 24% 29.83 in 10.0 mi SSE 15.0 mph - N/A   Clear
2:50 AM 37.4 °F 28.9 °F 3.2 °F 24% 30.00 in 10.0 mi ESE 13.8 mph - N/A   Clear
2:53 AM 36.0 °F 27.1 °F 3.9 °F 26% 29.83 in 10.0 mi ESE 13.8 mph - N/A   Clear
3:53 AM 28.0 °F 24.2 °F 6.1 °F 39% 29.86 in 10.0 mi Variable 3.5 mph - N/A   Clear
4:53 AM 26.1 °F 16.8 °F 7.0 °F 44% 29.88 in 10.0 mi NNE 9.2 mph - N/A   Clear
5:53 AM 24.1 °F 17.0 °F 9.0 °F 53% 29.89 in 10.0 mi East 5.8 mph - N/A   Clear
6:53 AM 27.0 °F - 12.0 °F 53% 29.90 in 10.0 mi Calm Calm - N/A   Clear
7:53 AM 30.9 °F - 12.0 °F 46% 29.91 in 10.0 mi Calm Calm - N/A   Clear
8:53 AM 36.0 °F 32.1 °F 12.0 °F 37% 29.91 in 10.0 mi SW 4.6 mph - N/A   Clear
9:53 AM 42.1 °F 34.9 °F 14.0 °F 32% 29.87 in 10.0 mi South 13.8 mph - N/A   Clear
10:53 AM 50.0 °F - 12.9 °F 23% 29.78 in 10.0 mi SSW 20.7 mph - N/A   Clear
11:53 AM 57.0 °F - 12.9 °F 18% 29.73 in 10.0 mi SSW 21.9 mph 33.4 mph N/A   Clear
12:53 PM 61.0 °F - 12.0 °F 15% 29.69 in 10.0 mi SW 26.5 mph 38.0 mph N/A   Clear
1:53 PM 64.0 °F - 6.1 °F 10% 29.66 in 10.0 mi WSW 35.7 mph 48.3 mph N/A   Clear
2:53 PM 64.0 °F - 6.1 °F 10% 29.64 in 10.0 mi WSW 31.1 mph 50.6 mph N/A   Clear
3:53 PM 66.0 °F - 6.1 °F 9% 29.65 in 10.0 mi SW 28.8 mph 42.6 mph N/A   Clear
4:53 PM 64.9 °F - 3.0 °F 9% 29.64 in 10.0 mi WSW 26.5 mph 46.0 mph N/A   Clear
5:53 PM 64.0 °F - 3.0 °F 9% 29.65 in 10.0 mi SW 27.6 mph 41.4 mph N/A   Clear
6:53 PM 62.1 °F - 3.0 °F 9% 29.64 in 10.0 mi SW 20.7 mph - N/A   Clear
7:53 PM 57.0 °F - 3.9 °F 12% 29.67 in 10.0 mi SW 13.8 mph 26.5 mph N/A   Clear
8:53 PM 50.0 °F - 3.9 °F 15% 29.70 in 10.0 mi SSW 12.7 mph - N/A   Clear
9:53 PM 51.1 °F - 5.0 °F 15% 29.67 in 10.0 mi SW 16.1 mph - N/A   Clear
10:53 PM 48.9 °F - 6.1 °F 18% 29.64 in 10.0 mi SW 12.7 mph - N/A   Clear
11:53 PM 52.0 °F - 6.1 °F 16% 29.60 in 10.0 mi WSW 25.3 mph 33.4 mph N/A   Clear